Date String (YYYY-MM-DD hh:mm:ss) UTC,Instrument flags,absolute air pressure of the measurement (hPa),sample flow rate (lpm),inlet stack bypass flow (lpm),air temperature of the measurement (°C),ambient temperature measured by the external sensor (°C),aerosol sample conditioner tube jacket temperature (°C),OPC LED temperature (°C),internal box temperature (°C),relative humidity of the measurement (%),span deviation,mass concentration of particles derived from Lorenz-Mie calculation of OPC scattering (μg/m³),mass concentration of particles derived from Lorenz-Mie calculation of OPC scattering (μg/m³),mass concentration of particles derived from Lorenz-Mie calculation of OPC scattering (μg/m³)
DateTimeUTC,F1_M11,P_M11,Q1_M11,Q2_M11,T1_M11,T2_M11,T3_M11,T4_M11,T5_M11,U1_M11,ZSPAN_M11,X2_M11,X0_M11,X1_M11
2024-04-07 03:00:00,SystemResetWarning,0810.1,4.99,000.00,019.2,019.2,000.0,027.4,021.1,008.5,0000.0,0008.45,0059.04,0001.80
2024-04-07 03:01:00,SystemResetWarning,0810.4,5.01,000.00,019.1,019.0,000.0,027.4,020.8,008.3,0000.0,0008.38,0057.95,0001.80
2024-04-07 03:02:00,SystemResetWarning,0810.3,5.00,000.00,019.0,018.6,000.0,027.4,020.5,008.6,0000.0,0008.04,0055.51,0001.71
2024-04-07 03:03:00,SystemResetWarning,0810.2,5.01,000.00,019.0,018.4,000.0,027.3,020.3,008.7,0000.0,0007.76,0051.40,0001.64
2024-04-07 03:04:00,SystemResetWarning,0810.1,5.01,000.00,018.9,018.1,000.0,027.3,020.2,008.4,0000.0,0007.07,0047.34,0001.51
2024-04-07 03:05:00,SystemResetWarning,0809.9,4.99,000.00,018.8,017.9,000.0,027.3,020.0,008.4,0000.0,0005.85,0037.62,0001.30
2024-04-07 03:06:00,SystemResetWarning,0810.1,4.99,000.00,018.7,017.6,000.0,027.3,020.0,008.2,0000.0,0005.07,0033.20,0001.16
2024-04-07 03:07:00,SystemResetWarning,0810.2,5.01,000.00,018.7,017.5,000.0,027.3,020.0,008.6,0000.0,0004.63,0031.72,0001.08
2024-04-07 03:08:00,SystemResetWarning,0810.2,5.01,000.00,018.7,017.9,000.0,027.3,020.3,008.8,0000.0,0004.38,0028.53,0001.01
2024-04-07 03:09:00,SystemResetWarning,0810.5,5.00,000.00,018.9,018.7,000.0,027.4,020.9,008.7,0000.0,0004.29,0026.84,0000.98
2024-04-07 03:10:00,SystemResetWarning,0810.1,5.00,000.00,019.1,019.4,000.0,027.4,021.3,008.6,0000.0,0003.58,0022.03,0000.84
2024-04-07 03:11:00,SystemResetWarning,0810.6,5.00,000.00,019.2,019.3,000.0,027.4,021.2,008.4,0000.0,0003.29,0018.61,0000.79
2024-04-07 03:12:00,SystemResetWarning,0810.1,5.00,000.00,019.1,018.9,000.0,027.4,020.9,008.5,0000.0,0003.20,0019.40,0000.77
2024-04-07 03:13:00,SystemResetWarning,0810.0,5.00,000.00,019.0,018.7,000.0,027.4,020.6,008.3,0000.0,0003.34,0020.08,0000.78
2024-04-07 03:14:00,SystemResetWarning,0810.3,5.01,000.00,019.0,018.4,000.0,027.3,020.4,008.4,0000.0,0003.51,0020.25,0000.81
2024-04-07 03:15:00,SystemResetWarning,0809.9,5.00,000.00,018.9,018.1,000.0,027.3,020.2,008.6,0000.0,0003.56,0019.78,0000.82
2024-04-07 03:16:00,SystemResetWarning,0810.1,5.01,000.00,018.8,017.8,000.0,027.3,020.0,008.6,0000.0,0003.75,0021.09,0000.85
2024-04-07 03:17:00,SystemResetWarning,0809.8,5.00,000.00,018.7,017.6,000.0,027.3,020.0,008.6,0000.0,0004.19,0021.03,0000.94
2024-04-07 03:18:00,SystemResetWarning,0809.6,4.99,000.00,018.6,017.5,000.0,027.3,020.0,008.8,0000.0,0004.55,0023.92,0001.00
2024-04-07 03:19:00,SystemResetWarning,0809.8,5.02,000.00,018.6,017.7,000.0,027.3,020.2,008.9,0000.0,0005.19,0030.93,0001.11
2024-04-07 03:20:00,SystemResetWarning,0809.9,5.00,000.00,018.8,018.6,000.0,027.4,020.8,008.7,0000.0,0005.64,0035.00,0001.23
2024-04-07 03:21:00,SystemResetWarning,0810.0,4.99,000.00,019.1,019.4,000.0,027.4,021.3,008.5,0000.0,0005.85,0035.05,0001.31
2024-04-07 03:22:00,SystemResetWarning,0810.0,4.98,000.00,019.2,019.3,000.0,027.4,021.2,008.6,0000.0,0006.24,0037.19,0001.39
2024-04-07 03:23:00,SystemResetWarning,0809.9,4.99,000.00,019.1,019.0,000.0,027.4,020.9,008.8,0000.0,0006.42,0038.58,0001.42
2024-04-07 03:24:00,SystemResetWarning,0810.0,5.02,000.00,019.0,018.7,000.0,027.4,020.6,008.7,0000.0,0006.48,0040.04,0001.43
2024-04-07 03:25:00,SystemResetWarning,0809.9,4.98,000.00,019.0,018.4,000.0,027.3,020.4,008.5,0000.0,0006.69,0041.84,0001.49
2024-04-07 03:26:00,SystemResetWarning,0810.1,5.00,000.00,018.9,018.1,000.0,027.3,020.2,008.4,0000.0,0007.32,0046.47,0001.60
2024-04-07 03:27:00,SystemResetWarning,0810.1,5.01,000.00,018.8,017.9,000.0,027.3,020.0,008.3,0000.0,0008.24,0051.01,0001.78
2024-04-07 03:28:00,SystemResetWarning,0810.2,5.00,000.00,018.7,017.7,000.0,027.3,020.0,008.4,0000.0,0008.47,0051.31,0001.83
2024-04-07 03:29:00,SystemResetWarning,0810.1,5.01,000.00,018.6,017.5,000.0,027.3,020.0,008.3,0000.0,0008.19,0049.65,0001.78
2024-04-07 03:30:00,SystemResetWarning,0809.8,4.99,000.00,018.7,018.0,000.0,027.3,020.4,008.5,0000.0,0008.18,0047.47,0001.81
2024-04-07 03:31:00,SystemResetWarning,0809.5,5.01,000.00,018.9,018.8,000.0,027.4,020.9,008.4,0000.0,0007.95,0044.95,0001.76
2024-04-07 03:32:00,SystemResetWarning,0809.6,4.99,000.00,019.1,019.6,000.0,027.5,021.4,008.1,0000.0,0007.91,0046.89,0001.72
2024-04-07 03:33:00,SystemResetWarning,0810.1,4.99,000.00,019.3,019.7,000.0,027.5,021.4,008.2,0000.0,0008.04,0058.49,0001.74
2024-04-07 03:34:00,SystemResetWarning,0810.1,5.00,000.00,019.2,019.4,000.0,027.4,021.1,008.3,0000.0,0008.71,0066.05,0001.92
2024-04-07 03:35:00,SystemResetWarning,0809.9,5.00,000.00,019.2,019.0,000.0,027.4,020.8,008.4,0000.0,0009.24,0070.41,0002.03
2024-04-07 03:36:00,SystemResetWarning,0809.7,5.00,000.00,019.1,018.7,000.0,027.4,020.5,008.6,0000.0,0010.06,0081.24,0002.18
2024-04-07 03:37:00,SystemResetWarning,0810.1,5.02,000.00,019.0,018.4,000.0,027.4,020.3,008.6,0000.0,0009.94,0083.14,0002.17
2024-04-07 03:38:00,SystemResetWarning,0809.9,4.98,000.00,018.9,018.1,000.0,027.3,020.1,008.6,0000.0,0010.26,0085.80,0002.27
2024-04-07 03:39:00,SystemResetWarning,0809.7,4.98,000.00,018.8,017.9,000.0,027.3,020.0,008.7,0000.0,0010.26,0088.30,0002.26
2024-04-07 03:40:00,SystemResetWarning,0809.9,5.01,000.00,018.7,017.6,000.0,027.3,020.0,008.9,0000.0,0010.49,0090.65,0002.29
2024-04-07 03:41:00,SystemResetWarning,0809.9,5.01,000.00,018.7,017.9,000.0,027.4,020.3,008.8,0000.0,0010.13,0087.82,0002.23
2024-04-07 03:42:00,SystemResetWarning,0809.8,5.00,000.00,018.9,018.7,000.0,027.4,020.9,008.7,0000.0,0009.99,0087.92,0002.22
2024-04-07 03:43:00,SystemResetWarning,0809.8,4.99,000.00,019.2,019.5,000.0,027.5,021.4,008.7,0000.0,0010.15,0086.47,0002.26
2024-04-07 03:44:00,SystemResetWarning,0809.5,4.99,000.00,019.3,019.8,000.0,027.5,021.5,008.6,0000.0,0010.11,0076.98,0002.25
2024-04-07 03:45:00,SystemResetWarning,0809.5,5.01,000.00,019.3,019.5,000.0,027.5,021.3,008.6,0000.0,0011.12,0084.29,0002.46
2024-04-07 03:46:00,SystemResetWarning,0809.4,5.01,000.00,019.3,019.2,000.0,027.5,020.9,008.7,-000.2,0018.04,0135.75,0003.58
2024-04-07 03:47:00,SystemResetWarning,0809.8,4.98,000.00,019.2,018.8,000.0,027.4,020.6,008.6,-002.6,0022.37,0166.05,0004.10
2024-04-07 03:48:00,SystemResetWarning,0809.9,5.00,000.00,019.1,018.5,000.0,027.4,020.4,008.5,-003.5,0023.30,0171.93,0004.24
2024-04-07 03:49:00,SystemResetWarning,0809.7,5.00,000.00,019.0,018.2,000.0,027.4,020.2,008.4,-002.3,0022.74,0167.44,0004.16
2024-04-07 03:50:00,SystemResetWarning,0809.8,5.00,000.00,018.8,017.9,000.0,027.3,020.0,008.6,-002.6,0022.33,0165.40,0004.11
2024-04-07 03:51:00,SystemResetWarning,0809.6,5.00,000.00,018.8,017.7,000.0,027.3,020.0,008.7,-003.6,0022.75,0166.85,0004.15
2024-04-07 03:52:00,SystemResetWarning,0809.5,5.01,000.00,018.7,017.7,000.0,027.4,020.2,008.7,-003.8,0023.27,0170.87,0004.20
2024-04-07 03:53:00,SystemResetWarning,0809.7,5.00,000.00,018.9,018.5,000.0,027.5,020.7,008.9,-003.6,0023.99,0175.40,0004.28
2024-04-07 03:54:00,SystemResetWarning,0809.8,4.99,000.00,019.1,019.3,000.0,027.5,021.3,008.9,-003.8,0024.31,0177.53,0004.32
2024-04-07 03:55:00,SystemResetWarning,0809.8,5.01,000.00,019.3,019.7,000.0,027.5,021.5,008.7,-004.0,0025.43,0186.76,0004.45
2024-04-07 03:56:00,SystemResetWarning,0810.0,4.98,000.00,019.3,019.5,000.0,027.5,021.3,008.7,-004.1,0027.79,0198.32,0004.70
2024-04-07 03:57:00,SystemResetWarning,0810.3,5.01,000.00,019.3,019.2,000.0,027.5,021.0,008.6,-001.5,0023.09,0162.01,0004.12
2024-04-07 03:58:00,SystemResetWarning,0810.1,5.01,000.00,019.2,018.8,000.0,027.5,020.7,008.4,0003.4,0015.82,0106.86,0003.27
2024-04-07 03:59:00,SystemResetWarning,0809.7,5.00,000.00,019.1,018.5,000.0,027.4,020.4,008.3,0000.0,0013.70,0088.44,0002.93
